Location: Casone le Fosse
(44.6547°N, 12.1103°E)
Time: 03:51:33
(UTC+00:00)

SAR-Lupe-1 - Pass Details

Date: 29 October 2020
Orbit: 480 x 485 km, 98.2° (Epoch: 26 November)

Event Time Altitude Azimuth Distance (km) Brightness Sun altitude
Rises 17:22:12 0° 11° (N) 2,555 7.6 -14.4°
Reaches altitude 10° 17:24:16 10° 9° (N) 1,670 6.6 -14.7°
Maximum altitude 17:27:50 70° 286° (WNW) 518 4.3 -15.4°
Drops below altitude 10° 17:31:23 10° 202° (SSW) 1,659 7.1 -16.0°
Sets 17:33:26 0° 200° (SSW) 2,534 8.0 -16.4°
